APRIZESAT 6

Last updated on Fri Dec 29 2023 00:03:29 GMT+0000 (Coordinated Universal Time)

1 37793U 11044F 23362.40713782 .00001282 00000+0 20046-3 0 9994 2 37793 98.3255 236.4056 0046926 83.0812 329.8618 14.73913659664313
UTC large
Height (km)
Speed (km/s)
/
Latitude / Longitude
Inclination (degrees)
Orbital Period (minutes)
Azimuth
Elevation
Range (km)
Doppler Factor

Next 0 passes for location: London (51.5072 / 0.1276)

Sorry there are no passes over London.